Powrót do katalogu

FENGYUN 1C DEB

AktywnyPO
NORAD 31178·DEBRIS·🇨🇳 China

Wystrzelony May 10, 1999 z Taiyuan Satellite Launch Center

Loading…

Następne Przeloty (najbliższe 24 godziny)

TLE

ŚwieżeSource: Space-Track

Epoka: Sep 13, 2026, 07:43 UTC

1 31178U 99025BJG 26256.32185833  .00002042  00000-0  84258-3 0  9997
2 31178  99.5073 285.5897 0121722 258.7780  99.9694 14.24115196997219

Śledź FENGYUN 1C DEB w czasie rzeczywistym z AllMySat

Download on the App Store